Location: Big Meadows
(38.5260°N, 78.4400°W)
Time: 17:19:59
(UTC-04:00)

H-2A R/B - Visible Passes

Search period start: 17 August 2017 00:00
Search period end: 27 August 2017 00:00
Orbit: 733 x 838 km, 98.4° (Epoch: 16 August)

Date Brightness Start Highest point End Pass type
(mag) Time Alt. Az. Time Alt. Az. Time Alt. Az.
17 Aug 1.9 22:31:59 71° ENE 22:32:00 71° ENE 22:37:01 10° N visible
18 Aug 4.6 00:12:37 12° W 00:12:37 12° W 00:13:47 10° WNW visible
18 Aug 2.7 22:00:55 35° E 22:01:20 35° ENE 22:05:53 10° N visible
18 Aug 3.8 23:41:33 24° W 23:41:33 24° W 23:44:53 10° NW visible
19 Aug 3.5 21:29:52 18° E 21:30:48 19° ENE 21:34:13 10° NNE visible
19 Aug 2.8 23:10:30 46° WNW 23:10:30 46° WNW 23:14:43 10° NNW visible
20 Aug 2.0 22:39:27 74° NNE 22:39:27 74° NNE 22:44:03 10° N visible
21 Aug 2.5 22:08:23 41° ENE 22:08:23 41° ENE 22:13:00 10° N visible
21 Aug 4.1 23:49:02 19° WNW 23:49:02 19° WNW 23:51:37 10° NW visible
22 Aug 3.3 21:37:20 21° ENE 21:37:46 22° ENE 21:41:29 10° NNE visible
22 Aug 3.2 23:17:58 36° WNW 23:17:58 36° WNW 23:21:37 10° NNW visible
23 Aug 4.0 21:06:16 10° ENE 21:07:21 11° ENE 21:08:38 10° NE visible
23 Aug 2.3 22:46:54 62° NNW 22:46:54 62° NNW 22:51:02 10° NNW visible
24 Aug 2.4 22:15:51 46° NE 22:15:51 46° NE 22:20:05 10° N visible
24 Aug 4.4 23:56:29 15° WNW 23:56:29 15° WNW 23:58:15 10° NW visible
25 Aug 3.2 21:44:48 25° ENE 21:44:48 25° ENE 21:48:43 10° NNE visible
25 Aug 3.6 23:25:26 29° WNW 23:25:26 29° WNW 23:28:29 10° NNW visible
26 Aug 3.9 21:13:44 13° ENE 21:14:15 13° ENE 21:16:26 10° NE visible
26 Aug 2.7 22:54:22 49° NW 22:54:22 49° NW 22:58:02 10° NNW visible
